GW7129 Weather Reports


time (UTC)temp
C
wind
direction
speed
KPH
gust
KPH
rain 1hr
cm
rain 24hr
cm
rain mn
cm
humidity
%
barometer
mb
20260510190459 28 245 3.2 17.7 0.00 0.00 0.00 34 1012.2
20260510185427 28 243 4.8 14.5 0.00 0.00 0.00 31 1012.5
20260510184354 28 276 8.0 14.5 0.00 0.00 0.00 31 1012.9
20260510183353 28 214 4.8 12.9 0.00 0.00 0.00 31 1012.9
20260510182352 28 224 4.8 14.5 0.00 0.00 0.00 31 1012.9
20260510181351 28 209 6.4 14.5 0.00 0.00 0.00 33 1012.9
20260510180350 27 237 1.6 17.7 0.00 0.00 0.00 31 1012.9
20260510175350 27 295 4.8 17.7 0.00 0.00 0.00 31 1013.2
20260510174349 27 300 4.8 14.5 0.00 0.00 0.00 30 1013.2
20260510173348 27 271 4.8 19.3 0.00 0.00 0.00 31 1013.2
20260510172347 27 290 11.3 19.3 0.00 0.00 0.00 31 1013.5
20260510171243 26 251 3.2 12.9 0.00 0.00 0.00 33 1013.5
20260510170242 26 257 3.2 16.1 0.00 0.00 0.00 33 1013.2
20260510165241 26 283 6.4 16.1 0.00 0.00 0.00 35 1013.5
20260510164209 26 292 8.0 16.1 0.00 0.00 0.00 32 1013.5
20260510163209 26 243 3.2 14.5 0.00 0.00 0.00 35 1013.9
20260510162207 26 272 3.2 14.5 0.00 0.00 0.00 34 1013.9
20260510161206 26 274 4.8 12.9 0.00 0.00 0.00 30 1013.9
20260510160204 26 292 8.0 12.9 0.00 0.00 0.00 35 1013.9
20260510155203 26 288 6.4 12.9 0.00 0.00 0.00 35 1013.9
20260510154132 26 298 6.4 12.9 0.00 0.00 0.00 32 1013.9
20260510153131 26 322 1.6 9.7 0.00 0.00 0.00 44 1013.9
20260510152129 25 224 4.8 12.9 0.00 0.00 0.00 47 1014.2
20260510151127 26 284 4.8 12.9 0.00 0.00 0.00 49 1014.2
20260510150126 25 206 3.2 6.4 0.00 0.00 0.00 48 1014.2
20260510145125 24 238 3.2 6.4 0.00 0.00 0.00 51 1014.2
20260510144124 24 203 3.2 6.4 0.00 0.00 0.00 51 1014.2
20260510143123 23 248 3.2 6.4 0.00 0.00 0.00 52 1031.8
20260510142122 23 200 3.2 6.4 0.00 0.00 0.00 55 1014.2
20260510141019 22 221 1.6 6.4 0.00 0.00 0.00 55 1014.2
20260510140018 22 276 3.2 6.4 0.00 0.00 0.00 56 1014.2
20260510135018 21 250 1.6 6.4 0.00 0.00 0.00 57 1014.2
20260510134017 21 240 1.6 6.4 0.00 0.00 0.00 61 1014.6
20260510133016 20 277 3.2 6.4 0.00 0.00 0.00 67 1014.6
20260510132015 18 287 3.2 6.4 0.00 0.00 0.00 76 1014.2
20260510130943 17 296 1.6 4.8 0.00 0.00 0.00 83 1014.2
20260510125910 17 253 1.6 4.8 0.00 0.00 0.00 86 1014.2
20260510124908 16 266 1.6 4.8 0.00 0.00 0.00 74 1014.2
20260510123908 15 234 0.0 3.2 0.00 0.00 0.00 64 1014.2
20260510122906 15 293 3.2 3.2 0.00 0.00 0.00 63 1014.2
20260510121905 15 248 0.0 0.0 0.00 0.00 0.00 60 1014.2
20260510120903 14 225 0.0 0.0 0.00 0.00 0.00 60 1013.9
20260510115902 13 321 0.0 0.0 0.00 0.00 0.00 61 1013.9
20260510114901 13 221 0.0 0.0 0.00 0.00 0.00 62 1013.5
20260510113901 12 267 0.0 1.6 0.00 0.00 0.00 64 669.2
20260510112827 11 267 0.0 1.6 0.00 0.00 0.00 64 1013.2
20260510111827 11 268 0.0 1.6 0.00 0.00 0.00 64 1012.9
20260510110826 11 267 0.0 1.6 0.00 0.00 0.00 65 1012.9
20260510105825 10 274 0.0 0.0 0.00 0.00 0.00 65 1012.9
20260510104824 10 274 0.0 0.0 0.00 0.00 0.00 66 1012.9
20260510103823 10 274 0.0 1.6 0.00 0.00 0.00 66 1012.5
20260510102822 10 274 1.6 1.6 0.00 0.00 0.00 66 1012.5
20260510101820 10 271 1.6 1.6 0.00 0.00 0.00 66 1012.2
20260510100748 10 271 0.0 1.6 0.00 0.00 0.00 66 1012.2
20260510095747 10 271 0.0 0.0 0.00 0.00 0.00 67 1012.2
20260510094745 10 271 0.0 0.0 0.00 0.00 0.00 67 1012.2
20260510093744 10 271 0.0 0.0 0.00 0.00 0.00 67 1011.9
20260510092743 10 271 0.0 1.6 0.00 0.00 0.00 68 1011.9
20260510091742 10 271 0.0 1.6 0.00 0.00 0.00 66 1012.2
20260510090740 10 271 0.0 0.0 0.00 0.00 0.00 67 1011.9
20260510085738 10 271 0.0 0.0 0.00 0.00 0.00 69 1011.5
20260510084737 10 271 0.0 0.0 0.00 0.00 0.00 68 1011.5
20260510083737 10 271 0.0 0.0 0.00 0.00 0.00 69 1011.5
20260510082633 10 271 0.0 0.0 0.00 0.00 0.00 70 1011.2
20260510081633 11 271 0.0 0.0 0.00 0.00 0.00 69 1011.2
20260510080632 11 271 0.0 1.6 0.00 0.00 0.00 70 1011.2
20260510075630 11 234 1.6 1.6 0.00 0.00 0.00 69 1011.2
20260510074628 11 189 0.0 0.0 0.00 0.00 0.00 70 1011.2
20260510073627 11 189 0.0 0.0 0.00 0.00 0.00 68 1011.2
20260510072625 11 182 0.0 0.0 0.00 0.00 0.00 70 1010.8
20260510071624 11 181 0.0 0.0 0.00 0.00 0.00 73 1010.8
20260510070623 12 267 0.0 0.0 0.00 0.00 0.00 74 1010.5
20260510065622 12 267 0.0 0.0 0.00 0.00 0.00 70 1010.8
20260510064621 12 267 0.0 0.0 0.00 0.00 0.00 72 1010.8
20260510063549 12 267 0.0 0.0 0.00 0.00 0.00 71 1010.8
20260510062549 12 267 0.0 0.0 0.00 0.00 0.00 70 1010.8
20260510061516 12 267 0.0 0.0 0.00 0.00 0.00 71 1011.2
20260510060514 12 267 0.0 0.0 0.00 0.00 0.00 70 1011.2
20260510055512 12 267 0.0 0.0 0.00 0.00 0.00 78 1010.8
20260510054512 13 267 0.0 0.0 0.00 0.00 0.00 78 1011.2
20260510053511 13 267 0.0 1.6 0.00 0.00 0.00 77 863.9
20260510052438 13 267 0.0 1.6 0.00 0.00 0.00 74 863.9
20260510051436 13 267 0.0 1.6 0.00 0.00 0.00 77 863.5
20260510050435 13 217 0.0 0.0 0.00 0.00 0.00 74 863.9
20260510045403 13 217 0.0 0.0 0.00 0.00 0.00 78 863.9
20260510044402 13 217 0.0 0.0 0.00 0.00 0.00 81 1011.2
20260510043330 13 217 0.0 0.0 0.00 0.00 0.00 83 1011.2
20260510042258 13 217 0.0 0.0 0.00 0.00 0.00 81 1011.2
20260510041257 13 217 0.0 0.0 0.00 0.00 0.00 83 1010.8
20260510040225 14 217 0.0 0.0 0.00 0.00 0.00 83 1011.2
20260510035224 14 217 0.0 0.0 0.00 0.00 0.00 84 1011.2
20260510034151 14 217 0.0 0.0 0.00 0.00 0.00 85 1011.2
20260510033150 15 217 0.0 0.0 0.00 0.00 0.00 85 1010.8
20260510032149 15 217 0.0 0.0 0.00 0.00 0.00 84 1010.8
20260510031147 15 217 0.0 0.0 0.00 0.00 0.00 85 1010.8
20260510030146 15 217 0.0 0.0 0.00 0.00 0.00 85 1010.5
20260510025144 15 217 0.0 0.0 0.00 0.00 0.00 85 1010.5
20260510024143 15 217 0.0 0.0 0.00 0.00 0.00 85 1010.8
20260510023142 15 217 0.0 0.0 0.00 0.00 0.00 85 1010.5
20260510022141 16 217 0.0 0.0 0.00 0.00 0.00 85 1010.5
20260510021140 16 217 0.0 0.0 0.00 0.00 0.00 83 1010.5
20260510020140 16 217 0.0 0.0 0.00 0.00 0.00 83 1010.5
20260510015139 17 217 0.0 0.0 0.00 0.00 0.00 83 1010.2
20260510014137 17 217 0.0 1.6 0.00 0.00 0.00 81 1010.2
20260510013105 17 212 0.0 1.6 0.00 0.00 0.00 80 1009.8
20260510012000 17 212 0.0 0.0 0.00 0.00 0.00 79 1009.5
20260510010959 18 212 0.0 0.0 0.00 0.00 0.00 78 1009.1
20260510005958 18 214 0.0 0.0 0.00 0.00 0.00 77 1009.1
20260510004956 18 214 0.0 0.0 0.00 0.00 0.00 76 1008.8
20260510003955 19 214 0.0 0.0 0.00 0.00 0.00 74 1008.5
20260510002954 20 201 0.0 0.0 0.00 0.00 0.00 73 1008.5
20260510001923 20 201 0.0 0.0 0.00 0.00 0.00 71 1008.8
20260510000922 21 200 0.0 0.0 0.00 0.00 0.00 69 1008.5
20260509235921 21 201 0.0 0.0 0.00 0.00 0.00 67 1008.5
20260509234920 22 200 0.0 0.0 0.00 0.00 0.00 65 1008.5
20260509233919 22 200 0.0 3.2 0.00 0.00 0.00 65 1008.5
20260509232919 22 221 0.0 4.8 0.00 0.00 0.00 65 1008.1
20260509231918 22 212 1.6 9.7 0.00 0.00 0.00 63 1008.1
20260509230917 23 208 3.2 9.7 0.00 0.00 0.00 61 1008.1
20260509225916 23 197 1.6 6.4 0.00 0.00 0.00 61 1007.8
20260509224915 22 117 3.2 6.4 0.00 0.00 0.00 64 1007.8
20260509223914 22 174 1.6 6.4 0.00 0.00 0.00 63 1007.8
20260509222913 23 198 1.6 4.8 0.00 0.00 0.00 60 1007.8
20260509221912 23 228 0.0 4.8 0.00 0.00 0.00 59 1007.8
20260509220911 23 234 1.6 8.0 0.00 0.00 0.00 57 1008.1
20260509215910 24 230 4.8 8.0 0.00 0.00 0.00 55 1007.8
20260509214805 25 242 3.2 12.9 0.00 0.00 0.00 55 1007.8
20260509213702 25 208 0.0 12.9 0.00 0.00 0.00 53 1007.8
20260509212701 25 88 4.8 12.9 0.00 0.00 0.00 53 1007.8
20260509211628 25 220 3.2 12.9 0.00 0.00 0.00 54 1007.5
20260509210555 25 263 3.2 16.1 0.00 0.00 0.00 53 1007.5
20260509205522 24 284 6.4 16.1 0.00 0.00 0.00 52 1007.5
20260509204521 24 283 3.2 11.3 0.00 0.00 0.00 50 1007.5
20260509203521 25 268 1.6 12.9 0.00 0.00 0.00 53 1007.5
20260509202520 25 219 3.2 12.9 0.00 0.00 0.00 50 1007.5
20260509201519 25 284 6.4 14.5 0.00 0.00 0.00 50 1007.5
20260509200518 25 278 6.4 14.5 0.00 0.00 0.00 50 1007.5
20260509195516 25 238 4.8 9.7 0.00 0.00 0.00 52 1007.8
20260509194515 24 222 3.2 11.3 0.00 0.00 0.00 53 1007.8
20260509193515 24 208 4.8 11.3 0.00 0.00 0.00 54 1008.1
20260509192442 24 240 6.4 11.3 0.00 0.00 0.00 51 1008.1
20260509191441 23 249 4.8 12.9 0.00 0.00 0.00 53 1008.1